TimeCDT,TemperatureF,Dew PointF,Humidity,Sea Level PressureIn,VisibilityMPH,Wind Direction,Wind SpeedMPH,Gust SpeedMPH,PrecipitationIn,Events,Conditions,WindDirDegrees,DateUTC
12:15 AM,-9999,-9999,N/A,29.98,10.0,SSE,11.5,26.5,N/A,Thunderstorm,Clear,150,2013-06-17 05:15:00
12:35 AM,66.0,60.4,82,30.03,5.0,NNW,48.3,56.4,0.01,Rain-Thunderstorm,Heavy Thunderstorms and Rain,340,2013-06-17 05:35:00
12:55 AM,63.5,61.7,94,30.05,4.0,NE,21.9,27.6,0.33,Rain-Thunderstorm,Light Thunderstorms and Rain,50,2013-06-17 05:55:00
1:15 AM,63.3,61.5,94,30.04,10.0,East,21.9,26.5,0.01,,Scattered Clouds,80,2013-06-17 06:15:00
1:35 AM,61.9,60.1,94,30.02,10.0,East,11.5,-,0.01,,Clear,100,2013-06-17 06:35:00
1:55 AM,61.3,59.5,94,30.03,10.0,ESE,13.8,19.6,0.01,,Clear,120,2013-06-17 06:55:00
2:15 AM,61.2,59.5,94,30.03,10.0,ESE,10.4,-,N/A,,Clear,110,2013-06-17 07:15:00
2:35 AM,61.7,59.9,94,30.04,10.0,ESE,10.4,-,N/A,,Clear,120,2013-06-17 07:35:00
2:55 AM,63.0,58.5,85,30.04,10.0,SSE,3.5,-,N/A,,Clear,160,2013-06-17 07:55:00
3:15 AM,63.9,58.3,82,30.04,10.0,SE,3.5,-,N/A,,Clear,130,2013-06-17 08:15:00
3:35 AM,63.3,59.2,86,30.04,10.0,North,4.6,-,N/A,,Clear,360,2013-06-17 08:35:00
3:55 AM,63.0,58.6,86,30.04,10.0,North,5.8,-,N/A,,Clear,350,2013-06-17 08:55:00
4:15 AM,63.0,59.0,87,30.05,10.0,NNE,6.9,-,N/A,,Clear,20,2013-06-17 09:15:00
4:35 AM,62.6,59.0,88,30.05,10.0,East,4.6,-,N/A,,Clear,100,2013-06-17 09:35:00
4:55 AM,62.2,59.0,89,30.06,10.0,ESE,5.8,-,N/A,,Clear,120,2013-06-17 09:55:00
5:15 AM,63.5,59.0,85,30.05,10.0,Calm,Calm,-,N/A,,Clear,0,2013-06-17 10:15:00
5:35 AM,63.0,58.5,85,30.05,10.0,Calm,Calm,-,N/A,,Clear,0,2013-06-17 10:35:00
5:55 AM,63.3,58.8,85,30.05,10.0,Calm,Calm,-,N/A,,Clear,0,2013-06-17 10:55:00
6:15 AM,63.9,58.6,83,30.07,10.0,Calm,Calm,-,N/A,,Clear,0,2013-06-17 11:15:00
6:35 AM,63.9,59.4,85,30.07,10.0,SSE,4.6,-,N/A,,Clear,150,2013-06-17 11:35:00
6:55 AM,64.4,59.4,84,30.06,10.0,SE,4.6,-,N/A,,Scattered Clouds,140,2013-06-17 11:55:00
7:15 AM,63.9,60.3,88,30.09,10.0,North,11.5,-,N/A,,Clear,360,2013-06-17 12:15:00
7:35 AM,64.6,60.1,85,30.09,10.0,NNE,9.2,-,N/A,,Clear,20,2013-06-17 12:35:00
7:55 AM,65.1,59.9,83,30.09,10.0,NNE,5.8,-,N/A,,Clear,20,2013-06-17 12:55:00
8:15 AM,66.2,60.4,82,30.09,10.0,North,9.2,-,N/A,,Clear,360,2013-06-17 13:15:00
8:35 AM,67.6,60.8,79,30.09,10.0,NNE,9.2,-,N/A,,Clear,20,2013-06-17 13:35:00
8:55 AM,69.3,61.2,75,30.11,10.0,NNE,12.7,-,N/A,,Clear,20,2013-06-17 13:55:00
9:15 AM,70.7,61.5,73,30.11,10.0,NE,9.2,-,N/A,,Clear,40,2013-06-17 14:15:00
9:35 AM,71.8,62.6,73,30.12,10.0,NE,10.4,-,N/A,,Clear,40,2013-06-17 14:35:00
9:55 AM,72.5,61.3,68,30.12,10.0,ENE,10.4,-,N/A,,Clear,70,2013-06-17 14:55:00
10:15 AM,73.8,61.0,64,30.12,10.0,ENE,10.4,-,N/A,,Clear,70,2013-06-17 15:15:00
10:35 AM,74.7,61.7,64,30.12,10.0,ENE,9.2,-,N/A,,Clear,60,2013-06-17 15:35:00
10:55 AM,75.2,60.8,61,30.13,10.0,East,9.2,-,N/A,,Scattered Clouds,100,2013-06-17 15:55:00
11:15 AM,75.6,61.9,62,30.13,10.0,ENE,4.6,-,N/A,,Scattered Clouds,70,2013-06-17 16:15:00
11:35 AM,75.7,61.9,62,30.13,10.0,ESE,8.1,-,N/A,,Scattered Clouds,110,2013-06-17 16:35:00
11:55 AM,76.5,62.1,61,30.13,10.0,ESE,5.8,-,N/A,,Scattered Clouds,120,2013-06-17 16:55:00
12:15 PM,76.6,62.8,62,30.13,10.0,ESE,4.6,-,N/A,,Scattered Clouds,110,2013-06-17 17:15:00
12:35 PM,78.1,62.6,59,30.13,10.0,East,9.2,-,N/A,,Clear,100,2013-06-17 17:35:00
12:55 PM,79.3,62.6,56,30.13,10.0,SE,6.9,-,N/A,,Clear,130,2013-06-17 17:55:00
1:15 PM,81.5,62.6,53,30.12,10.0,East,8.1,-,N/A,,Clear,80,2013-06-17 18:15:00
1:35 PM,81.5,60.8,49,30.11,10.0,ENE,6.9,-,N/A,,Clear,70,2013-06-17 18:35:00
1:55 PM,83.8,61.7,47,30.10,10.0,East,6.9,-,N/A,,Clear,80,2013-06-17 18:55:00
2:15 PM,83.3,61.2,47,30.10,10.0,ESE,11.5,17.3,N/A,,Clear,120,2013-06-17 19:15:00
2:35 PM,84.4,61.2,45,30.10,10.0,East,10.4,16.1,N/A,,Clear,80,2013-06-17 19:35:00
2:55 PM,-9999,-9999,N/A,30.09,10.0,East,9.2,-,N/A,,Clear,100,2013-06-17 19:55:00
3:15 PM,85.1,60.3,43,30.08,10.0,ENE,9.2,17.3,N/A,,Scattered Clouds,60,2013-06-17 20:15:00
3:35 PM,86.4,60.8,42,30.07,10.0,East,12.7,17.3,N/A,,Scattered Clouds,90,2013-06-17 20:35:00
3:55 PM,-9999,-9999,N/A,30.06,10.0,East,10.4,17.3,N/A,,Scattered Clouds,80,2013-06-17 20:55:00
4:15 PM,-9999,-9999,N/A,30.05,10.0,East,12.7,18.4,N/A,,Scattered Clouds,100,2013-06-17 21:15:00
4:35 PM,-9999,-9999,N/A,30.05,10.0,ESE,10.4,17.3,N/A,,Scattered Clouds,110,2013-06-17 21:35:00
4:55 PM,-9999,-9999,N/A,30.04,10.0,ESE,10.4,-,N/A,,Scattered Clouds,110,2013-06-17 21:55:00
5:15 PM,-9999,-9999,N/A,30.03,10.0,East,9.2,23.0,N/A,,Scattered Clouds,100,2013-06-17 22:15:00
5:35 PM,87.1,59.0,39,30.03,10.0,East,12.7,20.7,N/A,,Clear,100,2013-06-17 22:35:00
5:55 PM,-9999,-9999,N/A,30.02,10.0,ESE,12.7,23.0,N/A,,Clear,120,2013-06-17 22:55:00
6:15 PM,85.3,58.8,41,30.01,10.0,North,-9999.0,-,N/A,,Clear,0,2013-06-17 23:15:00
6:35 PM,85.1,59.2,41,30.00,10.0,North,-9999.0,-,N/A,,Clear,0,2013-06-17 23:35:00
6:55 PM,83.8,59.2,43,30.00,10.0,North,-9999.0,-,N/A,,Clear,0,2013-06-17 23:55:00
7:15 PM,82.6,59.0,45,30.01,10.0,East,18.4,-,N/A,,Clear,80,2013-06-18 00:15:00
7:35 PM,81.5,58.6,46,30.00,10.0,North,-9999.0,-,N/A,,Clear,0,2013-06-18 00:35:00
7:55 PM,80.4,59.0,48,30.03,10.0,East,16.1,-,N/A,,Clear,80,2013-06-18 00:55:00
8:15 PM,79.2,60.3,52,30.03,10.0,East,13.8,-,N/A,Thunderstorm,Clear,80,2013-06-18 01:15:00
8:35 PM,78.6,60.8,54,30.05,10.0,East,15.0,-,N/A,,Scattered Clouds,80,2013-06-18 01:35:00
8:55 PM,77.9,61.9,58,30.06,10.0,East,13.8,-,N/A,,Mostly Cloudy,90,2013-06-18 01:55:00
9:15 PM,75.4,63.9,67,30.09,10.0,ESE,10.4,18.4,N/A,Rain-Thunderstorm,Light Thunderstorms and Rain,110,2013-06-18 02:15:00
9:35 PM,73.9,64.6,72,30.14,10.0,SW,20.7,24.2,N/A,Rain-Thunderstorm,Thunderstorms and Rain,220,2013-06-18 02:35:00
9:55 PM,67.1,63.3,88,30.15,10.0,SW,10.4,21.9,0.01,Rain-Thunderstorm,Light Thunderstorms and Rain,220,2013-06-18 02:55:00
10:15 PM,67.6,63.5,87,30.17,10.0,South,15.0,20.7,N/A,,Drizzle,190,2013-06-18 03:15:00
10:35 PM,66.6,63.3,89,30.21,10.0,WSW,8.1,-,0.01,Rain-Thunderstorm,Light Thunderstorms and Rain,240,2013-06-18 03:35:00
10:55 PM,64.9,61.0,87,30.22,3.0,Calm,Calm,-,0.17,Rain,Heavy Rain,0,2013-06-18 03:55:00
11:15 PM,65.1,61.0,86,30.15,10.0,SSE,6.9,-,0.03,Rain,Light Rain,150,2013-06-18 04:15:00
11:35 PM,65.3,60.4,84,30.06,10.0,SSE,18.4,24.2,0.04,Rain-Thunderstorm,Light Thunderstorms and Rain,150,2013-06-18 04:35:00
11:55 PM,64.9,60.3,85,30.09,10.0,SSE,17.3,-,0.04,,Scattered Clouds,160,2013-06-18 04:55:00